This demonstration page uses our WeatherBlox Daily Observations layout. Learn more.

Left ArrowRight Arrow

Hourly Observations for November 8, 2020

Temp ( °F °C ) Dew Point ( °F °C ) Humidity (%) Winds ( mph kmh ) Pressure ( in mb ) Visibility ( mi km ) Precip ( " mm )
12:15 am 00:15 Clear 60 15.6 52 10.9 74 74 S 21 33 29.65 1004 10 16 N/A
12:35 am 00:35 Clear 60 15.5 52 10.9 74 74 S 21 33 29.65 1004 10 16 N/A
12:55 am 00:55 Clear 59 15.2 51 10.8 75 75 S 17 28 29.66 1004 10 16 N/A
1:15 am 01:15 Clear 59 15 51 10.8 76 76 S 17 28 29.66 1004 10 16 N/A
1:35 am 01:35 Clear 59 15 51 10.7 76 76 S 21 33 29.65 1004 10 16 N/A
1:55 am 01:55 Clear 59 14.8 51 10.6 76 76 S 16 26 29.65 1004 10 16 N/A
2:15 am 02:15 Clear 58 14.5 51 10.4 77 77 S 21 33 29.64 1004 10 16 N/A
2:35 am 02:35 Clear 58 14.2 50 10.2 77 77 S 21 33 29.64 1004 10 16 N/A
2:55 am 02:55 Clear 57 14 50 9.9 77 77 S 22 35 29.64 1004 10 16 N/A
3:15 am 03:15 Clear 56 13.6 49 9.5 76 76 S 21 33 29.64 1004 10 16 N/A
3:35 am 03:35 Clear 56 13.6 49 9.3 75 75 S 22 35 29.63 1003 10 16 N/A
3:55 am 03:55 Clear 56 13.5 49 9.2 75 75 S 20 31 29.64 1004 10 16 N/A
4:15 am 04:15 Clear 56 13.2 48 9 76 76 SSE 18 30 29.64 1004 10 16 N/A
4:35 am 04:35 Clear 56 13.1 48 9 76 76 S 21 33 29.65 1004 10 16 N/A
4:55 am 04:55 Clear 55 13 48 9 77 77 S 22 35 29.64 1004 10 16 N/A
5:15 am 05:15 Clear 55 13 48 9 77 77 SSE 20 31 29.65 1004 10 16 N/A
5:35 am 05:35 Clear 55 12.8 48 9 78 78 SSE 20 31 29.63 1003 10 16 N/A
5:55 am 05:55 Clear 55 12.7 48 9 78 78 SSE 21 33 29.62 1003 10 16 N/A
6:15 am 06:15 Clear 55 12.5 48 9.1 80 80 SSE 21 33 29.61 1003 10 16 N/A
6:35 am 06:35 Clear 55 12.5 49 9.2 80 80 SSE 23 37 29.61 1003 10 16 N/A
6:55 am 06:55 Clear 55 12.6 49 9.3 80 80 SSE 21 33 29.62 1003 10 16 N/A
7:15 am 07:15 Clear 55 12.5 49 9.3 81 81 SSE 23 37 29.62 1003 10 16 N/A
7:35 am 07:35 Sunny 55 12.6 49 9.5 82 82 SSE 24 39 29.64 1004 10 16 N/A
7:55 am 07:55 Sunny 55 13 49 9.5 79 79 SSE 23 37 29.64 1004 10 16 N/A
8:15 am 08:15 Sunny 56 13.5 49 9.7 78 78 SSE 25 41 29.64 1004 10 16 N/A
8:35 am 08:35 Sunny 57 14 50 9.8 76 76 SSE 24 39 29.64 1004 10 16 N/A
8:55 am 08:55 Partly Cloudy 58 14.5 50 10 75 75 SSE 24 39 29.63 1004 10 16 N/A
9:15 am 09:15 Cloudy 58 14.7 50 10 74 74 SSE 26 43 29.61 1003 10 16 N/A
9:35 am 09:35 Cloudy 59 15.1 50 10.1 72 72 S 28 44 29.62 1003 10 16 N/A
9:55 am 09:55 Cloudy 60 15.8 51 10.3 70 70 S 31 50 29.61 1003 10 16 N/A
10:15 am 10:15 Cloudy 61 16.1 50 10.2 68 68 S 29 46 29.63 1003 10 16 N/A
10:35 am 10:35 Cloudy 63 17 51 10.4 65 65 S 32 52 29.63 1003 10 16 N/A
10:55 am 10:55 Mostly Cloudy 64 18 50 10.2 61 61 S 33 54 29.61 1003 10 16 N/A
11:15 am 11:15 Mostly Cloudy 65 18.5 51 10.5 60 60 S 30 48 29.61 1003 10 16 N/A
11:35 am 11:35 Partly Cloudy 65 18.4 51 10.5 60 60 S 31 50 29.60 1002 10 16 N/A
11:55 am 11:55 Mostly Cloudy 67 19.4 51 10.6 57 57 S 25 41 29.60 1002 10 16 N/A
12:15 pm 12:15 Mostly Cloudy 68 20.2 51 10.5 54 54 S 32 52 29.59 1002 10 16 N/A
12:35 pm 12:35 Cloudy 69 20.5 51 10.5 53 53 S 29 46 29.58 1002 10 16 N/A
12:55 pm 12:55 Mostly Cloudy 70 21.1 51 10.5 51 51 S 26 43 29.59 1002 10 16 N/A
1:15 pm 13:15 Mostly Cloudy 71 21.5 51 10.5 50 50 S 26 43 29.58 1002 10 16 N/A
1:35 pm 13:35 Mostly Cloudy 71 21.4 51 10.8 51 51 S 30 48 29.58 1002 10 16 N/A
1:55 pm 13:55 Cloudy 69 20.7 51 10.7 53 53 S 24 39 29.58 1002 10 16 N/A
2:15 pm 14:15 Cloudy 70 21.1 51 10.8 52 52 S 21 33 29.59 1002 10 16 N/A
2:35 pm 14:35 Mostly Cloudy 70 21.3 52 10.9 52 52 S 20 31 29.58 1002 10 16 N/A
2:55 pm 14:55 Mostly Cloudy 72 22.3 50 10.1 46 46 S 24 39 29.57 1001 10 16 N/A
3:15 pm 15:15 Partly Cloudy 72 22.3 51 10.6 48 48 S 24 39 29.57 1001 10 16 N/A
3:35 pm 15:35 Partly Cloudy 71 21.9 51 10.6 49 49 S 22 35 29.57 1001 10 16 N/A
3:55 pm 15:55 Partly Cloudy 71 21.6 51 10.8 50 50 S 23 37 29.59 1002 10 16 N/A
4:15 pm 16:15 Partly Cloudy 71 21.6 51 10.6 50 50 S 20 31 29.60 1002 10 16 N/A
4:35 pm 16:35 Sunny 70 21.1 51 10.8 52 52 S 21 33 29.60 1002 10 16 N/A
4:55 pm 16:55 Sunny 69 20.6 51 10.8 54 54 S 15 24 29.60 1002 10 16 N/A
5:15 pm 17:15 Partly Cloudy 68 20.2 52 11.1 56 56 S 17 28 29.61 1003 10 16 N/A
5:35 pm 17:35 Mostly Cloudy 67 19.7 52 11.1 58 58 SSE 18 30 29.61 1003 10 16 N/A
5:55 pm 17:55 Partly Cloudy 67 19.2 52 11 59 59 SSE 14 22 29.61 1003 10 16 N/A
6:15 pm 18:15 Clear with Nearby Thunderstorms 66 18.7 52 11 61 61 SSE 13 20 29.62 1003 10 16 N/A
6:35 pm 18:35 Clear 65 18.5 51 10.8 61 61 S 14 22 29.62 1003 10 16 N/A
6:55 pm 18:55 Clear 65 18.5 52 11 62 62 S 16 26 29.63 1003 10 16 N/A
7:15 pm 19:15 Clear 65 18.5 52 11.3 63 63 S 15 24 29.63 1003 10 16 N/A
7:35 pm 19:35 Partly Cloudy 65 18.5 53 11.5 64 64 S 16 26 29.64 1004 10 16 N/A
7:55 pm 19:55 Mostly Cloudy 65 18.6 53 11.4 63 63 S 18 30 29.65 1004 10 16 N/A
8:15 pm 20:15 Partly Cloudy 65 18.3 53 11.5 65 65 SSE 24 39 29.64 1004 10 16 N/A
8:35 pm 20:35 Clear 64 18 54 12 68 68 S 25 41 29.65 1004 10 16 N/A
8:55 pm 20:55 Clear 64 17.7 54 12.2 70 70 S 21 33 29.66 1004 10 16 N/A
9:15 pm 21:15 Clear 64 17.5 54 12.2 71 71 S 22 35 29.66 1004 10 16 N/A
9:35 pm 21:35 Clear 63 17.3 54 12.2 72 72 S 23 37 29.66 1004 10 16 N/A
9:55 pm 21:55 Clear 63 17.1 54 12.2 73 73 S 23 37 29.67 1005 10 16 N/A
10:15 pm 22:15 Partly Cloudy 62 16.8 54 12.1 74 74 S 20 31 29.68 1005 10 16 N/A
10:35 pm 22:35 Partly Cloudy 62 16.6 54 12 74 74 S 21 33 29.68 1005 10 16 N/A
10:55 pm 22:55 Partly Cloudy 61 16.3 53 11.9 75 75 S 18 30 29.68 1005 10 16 N/A
11:15 pm 23:15 Partly Cloudy 61 16.1 54 12 77 77 S 23 37 29.67 1005 10 16 N/A
11:35 pm 23:35 Clear 61 16 54 12 77 77 S 22 35 29.67 1005 10 16 N/A
11:55 pm 23:55 Clear 60 15.8 54 12 78 78 S 22 35 29.66 1004 10 16 N/A

Powered by AerisWeather